| time (UTC) | temp F | wind direction | speed MPH | gust MPH | rain 1hr in | rain 24hr in | rain mn in | humidity % | barometer mb |
| 20260905171042 | 79 | 259 | 2.0 | 8.0 | 0.00 | 0.00 | 0.00 | 66 | 1008.9 |
| 20260905170540 | 79 | 248 | 3.0 | 8.0 | 0.00 | 0.00 | 0.00 | 66 | 1008.8 |
| 20260905170040 | 79 | 239 | 1.0 | 8.0 | 0.00 | 0.00 | 0.00 | 67 | 1008.9 |
| 20260905165540 | 78 | 238 | 0.0 | 8.0 | 0.00 | 0.00 | 0.00 | 67 | 1008.9 |
| 20260905165038 | 78 | 244 | 3.0 | 7.0 | 0.00 | 0.00 | 0.00 | 67 | 1009.0 |
| 20260905164537 | 78 | 126 | 1.0 | 5.0 | 0.00 | 0.00 | 0.00 | 67 | 1008.8 |
| 20260905164036 | 78 | 126 | 1.0 | 7.0 | 0.00 | 0.00 | 0.00 | 67 | 1008.7 |
| 20260905163535 | 78 | 128 | 2.0 | 7.0 | 0.00 | 0.00 | 0.00 | 68 | 1008.5 |
| 20260905162539 | 77 | 129 | 3.0 | 8.0 | 0.00 | 0.00 | 0.00 | 70 | 1008.1 |
| 20260905162038 | 76 | 130 | 4.0 | 8.0 | 0.00 | 0.00 | 0.00 | 71 | 1008.0 |
| 20260905161536 | 76 | 133 | 5.0 | 9.0 | 0.00 | 0.00 | 0.00 | 71 | 1007.9 |
| 20260905161036 | 76 | 135 | 4.0 | 9.0 | 0.00 | 0.00 | 0.00 | 71 | 1008.1 |
| 20260905160533 | 76 | 112 | 3.0 | 7.0 | 0.00 | 0.00 | 0.00 | 72 | 1008.1 |
| 20260905160046 | 76 | 112 | 3.0 | 6.0 | 0.00 | 0.00 | 0.00 | 71 | 1007.9 |
| 20260905155531 | 75 | 111 | 1.0 | 6.0 | 0.00 | 0.00 | 0.00 | 73 | 1008.0 |
| 20260905155031 | 75 | 122 | 3.0 | 6.0 | 0.00 | 0.00 | 0.00 | 73 | 1008.0 |
| 20260905154529 | 75 | 87 | 2.0 | 8.0 | 0.00 | 0.00 | 0.00 | 73 | 1008.0 |
| 20260905154029 | 74 | 67 | 2.0 | 8.0 | 0.00 | 0.00 | 0.00 | 75 | 1007.9 |
| 20260905153526 | 73 | 116 | 4.0 | 8.0 | 0.00 | 0.00 | 0.00 | 76 | 1007.8 |
| 20260905152523 | 73 | 95 | 3.0 | 7.0 | 0.00 | 0.00 | 0.00 | 76 | 1008.1 |
| 20260905152025 | 73 | 94 | 1.0 | 6.0 | 0.00 | 0.00 | 0.00 | 76 | 1007.9 |
| 20260905151521 | 72 | 91 | 2.0 | 7.0 | 0.00 | 0.00 | 0.00 | 77 | 1008.1 |
| 20260905151024 | 72 | 103 | 3.0 | 7.0 | 0.00 | 0.00 | 0.00 | 78 | 1008.2 |
| 20260905150519 | 72 | 109 | 3.0 | 7.0 | 0.00 | 0.00 | 0.00 | 78 | 1008.3 |
| 20260905150024 | 71 | 111 | 4.0 | 7.0 | 0.00 | 0.00 | 0.00 | 78 | 1008.2 |
| 20260905145519 | 71 | 101 | 2.0 | 7.0 | 0.00 | 0.00 | 0.00 | 79 | 1008.2 |
| 20260905145016 | 71 | 105 | 2.0 | 7.0 | 0.00 | 0.00 | 0.00 | 80 | 1008.1 |
| 20260905144537 | 70 | 108 | 2.0 | 6.0 | 0.00 | 0.00 | 0.00 | 81 | 1008.1 |
| 20260905144019 | 70 | 49 | 3.0 | 9.0 | 0.00 | 0.00 | 0.00 | 81 | 1008.0 |
| 20260905143516 | 70 | 86 | 2.0 | 9.0 | 0.00 | 0.00 | 0.00 | 81 | 1008.1 |
| 20260905142513 | 69 | 46 | 4.0 | 9.0 | 0.00 | 0.00 | 0.00 | 82 | 1007.8 |
| 20260905142015 | 69 | 36 | 4.0 | 9.0 | 0.00 | 0.00 | 0.00 | 83 | 1007.8 |
| 20260905141520 | 68 | 55 | 5.0 | 9.0 | 0.00 | 0.00 | 0.00 | 83 | 1007.9 |
| 20260905141016 | 68 | 32 | 4.0 | 9.0 | 0.00 | 0.00 | 0.00 | 84 | 1008.0 |
| 20260905140513 | 68 | 41 | 5.0 | 9.0 | 0.00 | 0.00 | 0.00 | 84 | 1007.9 |
| 20260905140012 | 67 | 5 | 4.0 | 9.0 | 0.00 | 0.00 | 0.00 | 84 | 1007.9 |
| 20260905135512 | 67 | 46 | 3.0 | 9.0 | 0.00 | 0.00 | 0.00 | 84 | 1007.8 |
| 20260905135012 | 67 | 53 | 4.0 | 9.0 | 0.00 | 0.00 | 0.00 | 85 | 1007.8 |
| 20260905134516 | 66 | 42 | 3.0 | 9.0 | 0.00 | 0.00 | 0.00 | 85 | 1008.0 |
| 20260905134011 | 65 | 36 | 3.0 | 8.0 | 0.00 | 0.00 | 0.00 | 85 | 1007.9 |
| 20260905133512 | 65 | 37 | 3.0 | 7.0 | 0.00 | 0.00 | 0.00 | 85 | 1008.0 |
| 20260905132515 | 64 | 42 | 0.0 | 2.0 | 0.00 | 0.00 | 0.00 | 86 | 1007.7 |
| 20260905132009 | 63 | 49 | 0.0 | 2.0 | 0.00 | 0.00 | 0.00 | 87 | 1007.7 |
| 20260905131510 | 62 | 51 | 0.0 | 2.0 | 0.00 | 0.00 | 0.00 | 89 | 1007.7 |
| 20260905131010 | 62 | 51 | 0.0 | 2.0 | 0.00 | 0.00 | 0.00 | 90 | 1007.6 |
| 20260905130508 | 61 | 51 | 0.0 | 1.0 | 0.00 | 0.00 | 0.00 | 90 | 1007.5 |
| 20260905130008 | 61 | 50 | 0.0 | 2.0 | 0.00 | 0.00 | 0.00 | 90 | 1007.3 |
| 20260905125507 | 61 | 50 | 0.0 | 3.0 | 0.00 | 0.00 | 0.00 | 90 | 1007.1 |
| 20260905125007 | 61 | 50 | 1.0 | 3.0 | 0.00 | 0.00 | 0.00 | 89 | 1006.8 |
| 20260905124506 | 61 | 51 | 1.0 | 3.0 | 0.00 | 0.00 | 0.00 | 88 | 1006.7 |
| 20260905124004 | 61 | 51 | 0.0 | 2.0 | 0.00 | 0.00 | 0.00 | 89 | 1006.9 |
| 20260905123504 | 61 | 51 | 0.0 | 2.0 | 0.00 | 0.00 | 0.00 | 89 | 1006.6 |
| 20260905122506 | 61 | 51 | 1.0 | 3.0 | 0.00 | 0.00 | 0.00 | 89 | 1006.5 |
| 20260905122002 | 61 | 51 | 0.0 | 3.0 | 0.00 | 0.00 | 0.00 | 89 | 1006.3 |
| 20260905121501 | 62 | 51 | 0.0 | 3.0 | 0.00 | 0.00 | 0.00 | 89 | 1006.2 |
| 20260905121002 | 62 | 71 | 0.0 | 0.0 | 0.00 | 0.00 | 0.00 | 89 | 1006.2 |
| 20260905120559 | 62 | 72 | 0.0 | 0.0 | 0.00 | 0.00 | 0.00 | 89 | 1006.2 |
| 20260905120100 | 62 | 72 | 0.0 | 0.0 | 0.00 | 0.00 | 0.00 | 89 | 1006.1 |
| 20260905115601 | 62 | 72 | 0.0 | 0.0 | 0.00 | 0.00 | 0.00 | 89 | 1006.1 |
| 20260905115100 | 62 | 72 | 0.0 | 0.0 | 0.00 | 0.00 | 0.00 | 89 | 1005.9 |
| 20260905114627 | 62 | 72 | 0.0 | 1.0 | 0.00 | 0.00 | 0.00 | 88 | 1005.7 |
| 20260905114057 | 62 | 72 | 0.0 | 1.0 | 0.00 | 0.00 | 0.00 | 89 | 1005.8 |
| 20260905113556 | 62 | 72 | 0.0 | 2.0 | 0.00 | 0.00 | 0.00 | 88 | 1005.7 |
| 20260905113156 | 63 | 73 | 0.0 | 2.0 | 0.00 | 0.00 | 0.00 | 88 | 1005.7 |
| 20260905112556 | 63 | 73 | 0.0 | 2.0 | 0.00 | 0.00 | 0.00 | 88 | 1005.8 |
| 20260905112054 | 63 | 73 | 0.0 | 2.0 | 0.00 | 0.00 | 0.00 | 87 | 1005.7 |
| 20260905111555 | 63 | 73 | 0.0 | 2.0 | 0.00 | 0.00 | 0.00 | 86 | 1005.6 |
| 20260905111055 | 63 | 73 | 0.0 | 2.0 | 0.00 | 0.00 | 0.00 | 86 | 1005.5 |
| 20260905110552 | 64 | 73 | 0.0 | 2.0 | 0.00 | 0.00 | 0.00 | 86 | 1005.5 |
| 20260905110052 | 64 | 73 | 0.0 | 1.0 | 0.00 | 0.00 | 0.00 | 86 | 1005.3 |
| 20260905105552 | 64 | 73 | 0.0 | 3.0 | 0.00 | 0.00 | 0.00 | 86 | 1005.5 |
| 20260905105051 | 64 | 73 | 0.0 | 3.0 | 0.00 | 0.00 | 0.00 | 86 | 1005.4 |
| 20260905104552 | 64 | 76 | 0.0 | 1.0 | 0.00 | 0.00 | 0.00 | 85 | 1005.4 |
| 20260905104049 | 64 | 76 | 0.0 | 1.0 | 0.00 | 0.00 | 0.00 | 85 | 1005.3 |
| 20260905103549 | 64 | 76 | 0.0 | 3.0 | 0.00 | 0.00 | 0.00 | 85 | 1005.4 |
| 20260905103149 | 65 | 76 | 0.0 | 0.0 | 0.00 | 0.00 | 0.00 | 85 | 1005.4 |
| 20260905102546 | 65 | 76 | 0.0 | 0.0 | 0.00 | 0.00 | 0.00 | 85 | 1005.1 |
| 20260905102048 | 65 | 76 | 0.0 | 3.0 | 0.00 | 0.00 | 0.00 | 85 | 1004.9 |
| 20260905101546 | 65 | 76 | 1.0 | 3.0 | 0.00 | 0.00 | 0.00 | 84 | 1004.9 |
| 20260905101044 | 65 | 76 | 1.0 | 3.0 | 0.00 | 0.00 | 0.00 | 84 | 1004.9 |
| 20260905100545 | 65 | 76 | 0.0 | 0.0 | 0.00 | 0.00 | 0.00 | 83 | 1004.8 |
| 20260905095542 | 65 | 76 | 0.0 | 3.0 | 0.00 | 0.00 | 0.00 | 81 | 1004.7 |
| 20260905095045 | 66 | 76 | 2.0 | 3.0 | 0.00 | 0.00 | 0.00 | 82 | 1004.4 |
| 20260905094542 | 66 | 76 | 0.0 | 0.0 | 0.00 | 0.00 | 0.00 | 81 | 1004.5 |
| 20260905094040 | 66 | 76 | 0.0 | 0.0 | 0.00 | 0.00 | 0.00 | 82 | 1004.7 |
| 20260905093541 | 66 | 76 | 0.0 | 0.0 | 0.00 | 0.00 | 0.00 | 81 | 1004.7 |
| 20260905093143 | 66 | 76 | 0.0 | 4.0 | 0.00 | 0.00 | 0.00 | 79 | 1004.6 |
| 20260905092541 | 66 | 76 | 0.0 | 4.0 | 0.00 | 0.00 | 0.00 | 79 | 1004.4 |
| 20260905092040 | 67 | 76 | 2.0 | 4.0 | 0.00 | 0.00 | 0.00 | 80 | 1004.3 |
| 20260905091552 | 67 | 76 | 1.0 | 3.0 | 0.00 | 0.00 | 0.00 | 80 | 1004.4 |
| 20260905091039 | 66 | 76 | 2.0 | 4.0 | 0.00 | 0.00 | 0.00 | 79 | 1004.5 |
| 20260905090540 | 66 | 76 | 2.0 | 4.0 | 0.00 | 0.00 | 0.00 | 79 | 1004.3 |
| 20260905090039 | 66 | 77 | 1.0 | 4.0 | 0.00 | 0.00 | 0.00 | 79 | 1004.1 |
| 20260905085539 | 66 | 88 | 0.0 | 0.0 | 0.00 | 0.00 | 0.00 | 78 | 1004.4 |
| 20260905085036 | 67 | 88 | 0.0 | 0.0 | 0.00 | 0.00 | 0.00 | 78 | 1004.1 |
| 20260905084536 | 67 | 88 | 0.0 | 0.0 | 0.00 | 0.00 | 0.00 | 77 | 1004.2 |
| 20260905084036 | 67 | 88 | 0.0 | 3.0 | 0.00 | 0.00 | 0.00 | 77 | 1004.2 |
| 20260905083536 | 67 | 88 | 1.0 | 3.0 | 0.00 | 0.00 | 0.00 | 77 | 1004.3 |
| 20260905083135 | 68 | 88 | 2.0 | 3.0 | 0.00 | 0.00 | 0.00 | 76 | 1004.3 |
| 20260905082538 | 68 | 88 | 1.0 | 3.0 | 0.00 | 0.00 | 0.00 | 77 | 1004.1 |
| 20260905082036 | 68 | 88 | 1.0 | 3.0 | 0.00 | 0.00 | 0.00 | 75 | 1004.3 |
| 20260905081535 | 68 | 88 | 0.0 | 0.0 | 0.00 | 0.00 | 0.00 | 75 | 1004.2 |
| 20260905081034 | 69 | 88 | 0.0 | 0.0 | 0.00 | 0.00 | 0.00 | 75 | 1004.2 |
| 20260905080534 | 69 | 88 | 0.0 | 1.0 | 0.00 | 0.00 | 0.00 | 74 | 1004.2 |
| 20260905080039 | 69 | 88 | 0.0 | 1.0 | 0.00 | 0.00 | 0.00 | 74 | 1004.2 |
| 20260905075534 | 69 | 86 | 0.0 | 0.0 | 0.00 | 0.00 | 0.00 | 74 | 1004.3 |
| 20260905075034 | 69 | 86 | 0.0 | 2.0 | 0.00 | 0.00 | 0.00 | 74 | 1004.2 |
| 20260905074544 | 69 | 86 | 0.0 | 2.0 | 0.00 | 0.00 | 0.00 | 73 | 1004.3 |
| 20260905074033 | 70 | 86 | 0.0 | 3.0 | 0.00 | 0.00 | 0.00 | 73 | 1004.3 |
| 20260905073533 | 69 | 85 | 1.0 | 3.0 | 0.00 | 0.00 | 0.00 | 74 | 1004.3 |
| 20260905073133 | 69 | 69 | 0.0 | 2.0 | 0.00 | 0.00 | 0.00 | 73 | 1004.4 |
| 20260905072537 | 69 | 69 | 0.0 | 2.0 | 0.00 | 0.00 | 0.00 | 73 | 1004.2 |
| 20260905072035 | 69 | 69 | 0.0 | 3.0 | 0.00 | 0.00 | 0.00 | 73 | 1004.4 |
| 20260905071533 | 69 | 58 | 0.0 | 4.0 | 0.00 | 0.00 | 0.00 | 72 | 1004.5 |
| 20260905071034 | 69 | 58 | 2.0 | 4.0 | 0.00 | 0.00 | 0.00 | 72 | 1004.5 |
| 20260905070532 | 69 | 68 | 2.0 | 4.0 | 0.00 | 0.00 | 0.00 | 72 | 1004.3 |
| 20260905070032 | 69 | 76 | 1.0 | 3.0 | 0.00 | 0.00 | 0.00 | 71 | 1004.5 |
| 20260905065530 | 70 | 76 | 1.0 | 3.0 | 0.00 | 0.00 | 0.00 | 70 | 1004.5 |
| 20260905065034 | 70 | 76 | 2.0 | 3.0 | 0.00 | 0.00 | 0.00 | 71 | 1004.5 |
| 20260905064529 | 70 | 76 | 2.0 | 4.0 | 0.00 | 0.00 | 0.00 | 70 | 1004.4 |
| 20260905064028 | 70 | 76 | 3.0 | 4.0 | 0.00 | 0.00 | 0.00 | 69 | 1004.4 |
| 20260905063526 | 71 | 76 | 2.0 | 4.0 | 0.00 | 0.00 | 0.00 | 69 | 1004.4 |
| 20260905063127 | 72 | 76 | 2.0 | 4.0 | 0.00 | 0.00 | 0.00 | 67 | 1004.5 |
| 20260905062523 | 72 | 76 | 1.0 | 4.0 | 0.00 | 0.00 | 0.00 | 67 | 1004.4 |
| 20260905062026 | 72 | 76 | 2.0 | 4.0 | 0.00 | 0.00 | 0.00 | 67 | 1004.3 |
| 20260905061524 | 72 | 76 | 1.0 | 3.0 | 0.00 | 0.00 | 0.00 | 67 | 1004.4 |
| 20260905061023 | 72 | 76 | 2.0 | 4.0 | 0.00 | 0.00 | 0.00 | 67 | 1004.3 |
| 20260905060523 | 72 | 76 | 2.0 | 4.0 | 0.00 | 0.00 | 0.00 | 68 | 1004.4 |
| 20260905060024 | 72 | 82 | 0.0 | 3.0 | 0.00 | 0.00 | 0.00 | 67 | 1004.3 |
| 20260905055522 | 72 | 82 | 1.0 | 3.0 | 0.00 | 0.00 | 0.00 | 67 | 1004.4 |
| 20260905055023 | 72 | 86 | 2.0 | 4.0 | 0.00 | 0.00 | 0.00 | 66 | 1004.3 |
| 20260905054522 | 73 | 86 | 1.0 | 4.0 | 0.00 | 0.00 | 0.00 | 64 | 1004.3 |
| 20260905054022 | 75 | 89 | 3.0 | 4.0 | 0.00 | 0.00 | 0.00 | 62 | 1004.2 |
| 20260905053523 | 75 | 106 | 0.0 | 4.0 | 0.00 | 0.00 | 0.00 | 61 | 1004.2 |
| 20260905053123 | 76 | 106 | 0.0 | 3.0 | 0.00 | 0.00 | 0.00 | 60 | 1004.1 |
| 20260905052521 | 76 | 106 | 0.0 | 4.0 | 0.00 | 0.00 | 0.00 | 60 | 1004.1 |
| 20260905052020 | 76 | 106 | 1.0 | 6.0 | 0.00 | 0.00 | 0.00 | 59 | 1004.2 |
| 20260905051520 | 77 | 107 | 2.0 | 6.0 | 0.00 | 0.00 | 0.00 | 59 | 1004.0 |
| 20260905051019 | 77 | 114 | 2.0 | 4.0 | 0.00 | 0.00 | 0.00 | 60 | 1004.1 |
| 20260905050523 | 77 | 115 | 2.0 | 4.0 | 0.00 | 0.00 | 0.00 | 59 | 1004.2 |
| 20260905050020 | 77 | 111 | 2.0 | 6.0 | 0.00 | 0.00 | 0.00 | 59 | 1004.2 |
| 20260905045523 | 78 | 119 | 1.0 | 8.0 | 0.00 | 0.00 | 0.00 | 58 | 1004.2 |
| 20260905045019 | 78 | 112 | 3.0 | 8.0 | 0.00 | 0.00 | 0.00 | 58 | 1004.2 |
| 20260905044522 | 78 | 107 | 2.0 | 8.0 | 0.00 | 0.00 | 0.00 | 57 | 1004.3 |
| 20260905044021 | 78 | 97 | 3.0 | 7.0 | 0.00 | 0.00 | 0.00 | 58 | 1004.3 |
| 20260905043519 | 78 | 125 | 2.0 | 7.0 | 0.00 | 0.00 | 0.00 | 57 | 1004.4 |
| 20260905043119 | 79 | 101 | 4.0 | 8.0 | 0.00 | 0.00 | 0.00 | 56 | 1004.3 |
| 20260905042520 | 79 | 108 | 4.0 | 8.0 | 0.00 | 0.00 | 0.00 | 56 | 1004.3 |
| 20260905042019 | 79 | 113 | 2.0 | 8.0 | 0.00 | 0.00 | 0.00 | 56 | 1004.3 |
| 20260905041520 | 80 | 117 | 3.0 | 8.0 | 0.00 | 0.00 | 0.00 | 55 | 1004.3 |
| 20260905041019 | 80 | 103 | 4.0 | 7.0 | 0.00 | 0.00 | 0.00 | 54 | 1004.1 |
| 20260905040518 | 81 | 111 | 3.0 | 9.0 | 0.00 | 0.00 | 0.00 | 53 | 1004.1 |
| 20260905040023 | 81 | 105 | 4.0 | 11.0 | 0.00 | 0.00 | 0.00 | 53 | 1003.9 |
| 20260905035518 | 82 | 122 | 7.0 | 15.0 | 0.00 | 0.00 | 0.00 | 53 | 1003.9 |
| 20260905035017 | 82 | 126 | 10.0 | 14.0 | 0.00 | 0.00 | 0.00 | 52 | 1003.9 |
| 20260905034521 | 81 | 133 | 9.0 | 15.0 | 0.00 | 0.00 | 0.00 | 53 | 1003.7 |
| 20260905034017 | 81 | 119 | 8.0 | 15.0 | 0.00 | 0.00 | 0.00 | 54 | 1003.7 |
| 20260905033517 | 81 | 130 | 6.0 | 10.0 | 0.00 | 0.00 | 0.00 | 54 | 1003.7 |
| 20260905033117 | 82 | 135 | 5.0 | 12.0 | 0.00 | 0.00 | 0.00 | 54 | 1003.7 |
| 20260905032520 | 82 | 105 | 6.0 | 12.0 | 0.00 | 0.00 | 0.00 | 54 | 1003.7 |
| 20260905032018 | 82 | 108 | 7.0 | 14.0 | 0.00 | 0.00 | 0.00 | 53 | 1003.7 |
| 20260905031524 | 83 | 122 | 6.0 | 14.0 | 0.00 | 0.00 | 0.00 | 53 | 1003.5 |
| 20260905031020 | 83 | 99 | 6.0 | 12.0 | 0.00 | 0.00 | 0.00 | 53 | 1003.6 |
| 20260905030521 | 83 | 109 | 5.0 | 10.0 | 0.00 | 0.00 | 0.00 | 53 | 1003.6 |
| 20260905030018 | 83 | 101 | 2.0 | 7.0 | 0.00 | 0.00 | 0.00 | 53 | 1003.6 |
| 20260905025517 | 83 | 44 | 2.0 | 8.0 | 0.00 | 0.00 | 0.00 | 53 | 1003.8 |
| 20260905025019 | 83 | 101 | 1.0 | 4.0 | 0.00 | 0.00 | 0.00 | 53 | 1003.8 |
| 20260905024517 | 83 | 101 | 1.0 | 9.0 | 0.00 | 0.00 | 0.00 | 53 | 1003.7 |
| 20260905024020 | 84 | 65 | 2.0 | 9.0 | 0.00 | 0.00 | 0.00 | 52 | 1003.7 |
| 20260905023517 | 84 | 108 | 1.0 | 8.0 | 0.00 | 0.00 | 0.00 | 52 | 1003.8 |
| 20260905023138 | 84 | 67 | 1.0 | 11.0 | 0.00 | 0.00 | 0.00 | 51 | 1003.6 |
| 20260905022516 | 84 | 98 | 4.0 | 11.0 | 0.00 | 0.00 | 0.00 | 50 | 1003.7 |
| 20260905022016 | 84 | 55 | 2.0 | 9.0 | 0.00 | 0.00 | 0.00 | 49 | 1003.6 |
| 20260905021518 | 85 | 48 | 2.0 | 9.0 | 0.00 | 0.00 | 0.00 | 49 | 1003.7 |
| 20260905021016 | 85 | 111 | 0.0 | 5.0 | 0.00 | 0.00 | 0.00 | 48 | 1003.6 |
| 20260905020515 | 86 | 101 | 0.0 | 4.0 | 0.00 | 0.00 | 0.00 | 47 | 1003.5 |
| 20260905020023 | 87 | 99 | 1.0 | 11.0 | 0.00 | 0.00 | 0.00 | 45 | 1003.5 |
| 20260905015516 | 87 | 101 | 0.0 | 11.0 | 0.00 | 0.00 | 0.00 | 45 | 1003.4 |
| 20260905015019 | 87 | 107 | 1.0 | 6.0 | 0.00 | 0.00 | 0.00 | 44 | 1003.4 |
| 20260905014516 | 87 | 84 | 3.0 | 8.0 | 0.00 | 0.00 | 0.00 | 43 | 1003.2 |
| 20260905014015 | 88 | 68 | 3.0 | 8.0 | 0.00 | 0.00 | 0.00 | 42 | 1003.2 |
| 20260905013515 | 89 | 54 | 2.0 | 8.0 | 0.00 | 0.00 | 0.00 | 40 | 1003.1 |
| 20260905013115 | 89 | 68 | 2.0 | 7.0 | 0.00 | 0.00 | 0.00 | 39 | 1003.0 |
| 20260905012518 | 89 | 107 | 2.0 | 7.0 | 0.00 | 0.00 | 0.00 | 39 | 1003.0 |
| 20260905012018 | 90 | 111 | 1.0 | 8.0 | 0.00 | 0.00 | 0.00 | 39 | 1002.9 |
| 20260905011514 | 91 | 113 | 2.0 | 8.0 | 0.00 | 0.00 | 0.00 | 38 | 1003.0 |
| 20260905011014 | 91 | 102 | 4.0 | 8.0 | 0.00 | 0.00 | 0.00 | 38 | 1003.0 |
| 20260905010514 | 92 | 104 | 1.0 | 7.0 | 0.00 | 0.00 | 0.00 | 39 | 1002.8 |
| 20260905010016 | 92 | 92 | 2.0 | 6.0 | 0.00 | 0.00 | 0.00 | 38 | 1002.9 |
| 20260905005514 | 93 | 101 | 2.0 | 6.0 | 0.00 | 0.00 | 0.00 | 38 | 1002.9 |
| 20260905005013 | 93 | 84 | 2.0 | 6.0 | 0.00 | 0.00 | 0.00 | 38 | 1002.9 |
| 20260905004517 | 93 | 115 | 2.0 | 10.0 | 0.00 | 0.00 | 0.00 | 38 | 1002.9 |
| 20260905004013 | 93 | 92 | 6.0 | 11.0 | 0.00 | 0.00 | 0.00 | 38 | 1002.8 |
| 20260905003517 | 94 | 107 | 4.0 | 11.0 | 0.00 | 0.00 | 0.00 | 37 | 1002.8 |
| 20260905003112 | 94 | 103 | 4.0 | 8.0 | 0.00 | 0.00 | 0.00 | 36 | 1002.8 |
| 20260905002510 | 94 | 83 | 3.0 | 8.0 | 0.00 | 0.00 | 0.00 | 35 | 1002.7 |
| 20260905002010 | 94 | 107 | 2.0 | 7.0 | 0.00 | 0.00 | 0.00 | 35 | 1002.7 |
| 20260905001518 | 94 | 97 | 2.0 | 9.0 | 0.00 | 0.00 | 0.00 | 34 | 1002.8 |
| 20260905001009 | 94 | 70 | 4.0 | 9.0 | 0.00 | 0.00 | 0.00 | 34 | 1002.7 |
| 20260905000510 | 95 | 102 | 3.0 | 11.0 | 0.00 | 0.00 | 0.00 | 34 | 1003.0 |
| 20260905000009 | 95 | 46 | 5.0 | 10.0 | 0.00 | 0.00 | 0.00 | 33 | 1002.9 |
| 20260904235507 | 95 | 63 | 4.0 | 10.0 | 0.00 | 0.00 | 0.00 | 32 | 1002.9 |
| 20260904235005 | 95 | 67 | 2.0 | 10.0 | 0.00 | 0.00 | 0.00 | 33 | 1002.8 |
| 20260904234507 | 96 | 62 | 3.0 | 10.0 | 0.00 | 0.00 | 0.00 | 32 | 1002.8 |
| 20260904234002 | 96 | 98 | 2.0 | 10.0 | 0.00 | 0.00 | 0.00 | 32 | 1002.7 |
| 20260904233501 | 96 | 100 | 3.0 | 10.0 | 0.00 | 0.00 | 0.00 | 32 | 1002.7 |
| 20260904233100 | 96 | 101 | 3.0 | 9.0 | 0.00 | 0.00 | 0.00 | 31 | 1002.7 |
| 20260904232505 | 96 | 104 | 3.0 | 8.0 | 0.00 | 0.00 | 0.00 | 31 | 1002.6 |
| 20260904232004 | 96 | 100 | 2.0 | 7.0 | 0.00 | 0.00 | 0.00 | 31 | 1002.8 |
| 20260904231506 | 96 | 104 | 3.0 | 11.0 | 0.00 | 0.00 | 0.00 | 30 | 1002.7 |
| 20260904231101 | 96 | 103 | 4.0 | 11.0 | 0.00 | 0.00 | 0.00 | 30 | 1002.8 |
| 20260904230600 | 96 | 78 | 2.0 | 8.0 | 0.00 | 0.00 | 0.00 | 31 | 1002.7 |
| 20260904230058 | 96 | 99 | 3.0 | 9.0 | 0.00 | 0.00 | 0.00 | 31 | 1002.8 |
| 20260904225556 | 96 | 113 | 4.0 | 9.0 | 0.00 | 0.00 | 0.00 | 31 | 1002.9 |
| 20260904225057 | 95 | 46 | 2.0 | 10.0 | 0.00 | 0.00 | 0.00 | 32 | 1002.8 |
| 20260904224601 | 95 | 99 | 5.0 | 11.0 | 0.00 | 0.00 | 0.00 | 31 | 1003.0 |
| 20260904224054 | 95 | 139 | 6.0 | 11.0 | 0.00 | 0.00 | 0.00 | 31 | 1003.0 |
| 20260904223551 | 95 | 132 | 4.0 | 14.0 | 0.00 | 0.00 | 0.00 | 31 | 1003.2 |
| 20260904223053 | 95 | 100 | 5.0 | 11.0 | 0.00 | 0.00 | 0.00 | 32 | 1003.1 |
| 20260904222045 | 95 | 101 | 5.0 | 10.0 | 0.00 | 0.00 | 0.00 | 31 | 1003.2 |
| 20260904221545 | 95 | 127 | 6.0 | 16.0 | 0.00 | 0.00 | 0.00 | 32 | 1003.3 |
| 20260904221042 | 95 | 120 | 7.0 | 16.0 | 0.00 | 0.00 | 0.00 | 31 | 1003.5 |
| 20260904220543 | 95 | 92 | 7.0 | 12.0 | 0.00 | 0.00 | 0.00 | 31 | 1003.5 |
| 20260904220105 | 95 | 130 | 6.0 | 10.0 | 0.00 | 0.00 | 0.00 | 31 | 1003.5 |
| 20260904215541 | 94 | 167 | 4.0 | 13.0 | 0.00 | 0.00 | 0.00 | 30 | 1003.6 |
| 20260904215043 | 94 | 126 | 7.0 | 13.0 | 0.00 | 0.00 | 0.00 | 30 | 1003.6 |
| 20260904214538 | 94 | 121 | 8.0 | 18.0 | 0.00 | 0.00 | 0.00 | 30 | 1003.7 |
| 20260904214037 | 94 | 125 | 11.0 | 18.0 | 0.00 | 0.00 | 0.00 | 30 | 1003.8 |
| 20260904213539 | 94 | 76 | 7.0 | 12.0 | 0.00 | 0.00 | 0.00 | 34 | 1003.7 |
| 20260904213037 | 93 | 130 | 8.0 | 15.0 | 0.00 | 0.00 | 0.00 | 36 | 1003.9 |
| 20260904212035 | 93 | 119 | 5.0 | 15.0 | 0.00 | 0.00 | 0.00 | 37 | 1004.1 |
| 20260904211538 | 92 | 101 | 7.0 | 16.0 | 0.00 | 0.00 | 0.00 | 37 | 1004.0 |
| 20260904211032 | 92 | 142 | 10.0 | 16.0 | 0.00 | 0.00 | 0.00 | 37 | 1003.9 |
| 20260904210530 | 92 | 138 | 11.0 | 18.0 | 0.00 | 0.00 | 0.00 | 38 | 1004.1 |
| 20260904210036 | 91 | 126 | 10.0 | 18.0 | 0.00 | 0.00 | 0.00 | 38 | 1004.3 |
| 20260904205531 | 92 | 111 | 6.0 | 17.0 | 0.00 | 0.00 | 0.00 | 38 | 1004.3 |
| 20260904205029 | 91 | 144 | 9.0 | 17.0 | 0.00 | 0.00 | 0.00 | 38 | 1004.4 |
| 20260904204527 | 91 | 113 | 11.0 | 17.0 | 0.00 | 0.00 | 0.00 | 39 | 1004.4 |
| 20260904204025 | 91 | 108 | 9.0 | 18.0 | 0.00 | 0.00 | 0.00 | 39 | 1004.4 |
| 20260904203529 | 90 | 136 | 12.0 | 18.0 | 0.00 | 0.00 | 0.00 | 38 | 1004.5 |
| 20260904203033 | 90 | 145 | 11.0 | 20.0 | 0.00 | 0.00 | 0.00 | 40 | 1004.6 |
| 20260904202020 | 90 | 111 | 13.0 | 20.0 | 0.00 | 0.00 | 0.00 | 40 | 1004.5 |
| 20260904201520 | 89 | 144 | 11.0 | 19.0 | 0.00 | 0.00 | 0.00 | 40 | 1004.5 |
| 20260904201023 | 89 | 144 | 10.0 | 17.0 | 0.00 | 0.00 | 0.00 | 41 | 1004.6 |
| 20260904200518 | 89 | 129 | 13.0 | 20.0 | 0.00 | 0.00 | 0.00 | 41 | 1004.6 |
| 20260904200020 | 89 | 130 | 11.0 | 19.0 | 0.00 | 0.00 | 0.00 | 42 | 1004.5 |
| 20260904195520 | 88 | 134 | 11.0 | 21.0 | 0.00 | 0.00 | 0.00 | 42 | 1004.6 |
| 20260904195014 | 88 | 146 | 11.0 | 18.0 | 0.00 | 0.00 | 0.00 | 43 | 1004.6 |
| 20260904194540 | 88 | 165 | 10.0 | 20.0 | 0.00 | 0.00 | 0.00 | 44 | 1004.8 |
| 20260904194014 | 88 | 174 | 14.0 | 19.0 | 0.00 | 0.00 | 0.00 | 43 | 1004.7 |
| 20260904193517 | 88 | 127 | 10.0 | 18.0 | 0.00 | 0.00 | 0.00 | 45 | 1004.9 |
| 20260904193012 | 87 | 129 | 13.0 | 23.0 | 0.00 | 0.00 | 0.00 | 45 | 1004.9 |
| 20260904192013 | 87 | 103 | 11.0 | 24.0 | 0.00 | 0.00 | 0.00 | 46 | 1005.1 |
| 20260904191517 | 87 | 138 | 13.0 | 19.0 | 0.00 | 0.00 | 0.00 | 46 | 1005.1 |
| 20260904191013 | 87 | 125 | 11.0 | 19.0 | 0.00 | 0.00 | 0.00 | 46 | 1005.2 |
| 20260904190510 | 87 | 125 | 12.0 | 18.0 | 0.00 | 0.00 | 0.00 | 46 | 1005.5 |
| 20260904190009 | 87 | 130 | 8.0 | 20.0 | 0.00 | 0.00 | 0.00 | 46 | 1005.4 |
| 20260904185512 | 86 | 148 | 13.0 | 19.0 | 0.00 | 0.00 | 0.00 | 46 | 1005.4 |
| 20260904185008 | 86 | 117 | 13.0 | 19.0 | 0.00 | 0.00 | 0.00 | 46 | 1005.6 |
| 20260904184506 | 86 | 157 | 12.0 | 19.0 | 0.00 | 0.00 | 0.00 | 47 | 1005.6 |
| 20260904184005 | 85 | 100 | 12.0 | 22.0 | 0.00 | 0.00 | 0.00 | 48 | 1005.8 |
| 20260904183503 | 85 | 119 | 15.0 | 21.0 | 0.00 | 0.00 | 0.00 | 48 | 1005.8 |
| 20260904183003 | 85 | 144 | 12.0 | 20.0 | 0.00 | 0.00 | 0.00 | 48 | 1005.9 |
| 20260904182006 | 84 | 146 | 15.0 | 21.0 | 0.00 | 0.00 | 0.00 | 48 | 1006.1 |
| 20260904181501 | 84 | 144 | 13.0 | 23.0 | 0.00 | 0.00 | 0.00 | 49 | 1006.1 |
| 20260904181103 | 84 | 124 | 16.0 | 25.0 | 0.00 | 0.00 | 0.00 | 49 | 1006.1 |
| 20260904180558 | 84 | 114 | 13.0 | 27.0 | 0.00 | 0.00 | 0.00 | 49 | 1006.1 |
| 20260904180113 | 84 | 115 | 12.0 | 25.0 | 0.00 | 0.00 | 0.00 | 49 | 1006.2 |
| 20260904175555 | 83 | 120 | 17.0 | 24.0 | 0.00 | 0.00 | 0.00 | 49 | 1006.3 |
| 20260904175054 | 83 | 130 | 15.0 | 24.0 | 0.00 | 0.00 | 0.00 | 51 | 1006.2 |
| 20260904174608 | 82 | 155 | 14.0 | 23.0 | 0.00 | 0.00 | 0.00 | 51 | 1006.6 |
| 20260904174053 | 82 | 136 | 11.0 | 20.0 | 0.00 | 0.00 | 0.00 | 53 | 1006.6 |
| 20260904173550 | 82 | 138 | 12.0 | 22.0 | 0.00 | 0.00 | 0.00 | 52 | 1006.7 |
| 20260904173050 | 81 | 145 | 16.0 | 22.0 | 0.00 | 0.00 | 0.00 | 52 | 1006.7 |
| 20260904172051 | 81 | 134 | 14.0 | 23.0 | 0.00 | 0.00 | 0.00 | 53 | 1006.8 |
| 20260904171549 | 80 | 132 | 17.0 | 24.0 | 0.00 | 0.00 | 0.00 | 53 | 1007.1 |